Location: Cit� de la Raye Dieu
(45.7667°N, 3.1167°E)
Time: 23:31:39
(UTC+00:00)

Daily predictions for brighter satellites

Satellite Brightness Start Highest point End
(mag) Time Altitude Azimuth Time Altitude Azimuth Time Altitude Azimuth
Cosmos 1174 4.4 16:36:56 10° NW 16:41:14 84° WSW 16:46:41 10° SSE
Meteor PRIRODA 3.6 16:37:48 10° SSE 16:41:27 77° ENE 16:45:06 10° N
ERBS 4.1 16:42:43 10° SSE 16:44:47 16° SE 16:46:52 10° E
CZ-4C R/B 4.3 16:43:16 10° N 16:47:13 48° WNW 16:50:57 10° SW
Cosmos 2221 3.4 16:45:13 10° SSE 16:48:49 28° E 16:52:29 10° NNE
NOSS 2-1 (E) 3.4 16:45:57 10° SSW 16:49:06 41° ESE 16:52:13 10° NE
ISS -3.3 16:48:16 10° WSW 16:51:37 55° NNW 16:54:50 11° ENE
CZ-2C R/B 3.8 16:50:18 10° NE 16:54:09 20° E 16:57:56 10° SE
USA 267 3.8 16:48:29 10° NE 16:54:46 51° NNW 17:01:02 10° W
Cosmos 1340 Rocket 4.1 16:53:04 10° NNE 16:56:03 19° ENE 16:59:02 10° ESE
Spot 1 4.5 16:51:35 10° N 16:56:04 75° WNW 17:00:47 10° SSW
AQUARIUS 4.2 16:53:49 10° SSE 16:58:11 55° ENE 17:02:35 10° N
RESURS DK-1 4.4 16:55:51 10° WSW 16:59:10 23° NW 17:02:31 10° N
Cosmos 1271 Rocket 2.7 16:56:18 10° S 17:00:09 67° E 17:04:05 10° NNE
USA 306 2.9 16:56:01 10° SW 17:00:15 73° SE 17:04:01 13° ENE
Lacrosse 5 rocket 3.0 16:57:39 10° WNW 17:00:35 21° NNW 17:03:40 10° NE
Nadezhda 4 Rocket 4.3 16:54:40 10° N 17:00:39 43° ENE 17:06:37 10° SE
Cosmos 1891 Rocket 4.5 16:58:11 10° S 17:04:15 66° E 17:10:29 10° NNE
SMAP 3.0 17:00:35 10° SSE 17:05:13 77° ENE 17:09:54 10° N
ATLAS 2AS CENTAUR R/B 3.9 17:00:01 10° WSW 17:07:22 42° NW 17:14:30 10° NNE
CZ-4B DEB 4.2 17:03:04 10° SSE 17:08:32 66° ENE 17:14:01 10° N
Cosmos 1408 Rocket 3.8 17:04:26 10° N 17:08:35 43° ENE 17:12:44 10° SSE
Meteor 2-2 Rocket 4.4 17:04:26 10° S 17:10:23 65° E 17:16:21 10° NNE
Cosmos 1743 Rocket 4.5 17:06:47 10° NNE 17:10:25 26° ENE 17:14:01 10° SE
Cosmos 1980 Rocket 3.9 17:08:58 10° N 17:11:35 13° NE 17:12:44 12° NE
Cosmos 1697 Rocket 3.9 17:07:28 10° N 17:11:37 20° NE 17:14:22 15° E
H-2A R/B 2.3 17:07:56 10° SE 17:12:59 48° ENE 17:17:55 10° N
Cosmos 1513 Rocket 4.4 17:09:05 10° S 17:15:08 76° E 17:21:18 10° NNE
USA 307 2.9 17:11:03 10° SW 17:15:21 84° SE 17:18:33 17° ENE
PAYLOAD B 4.3 17:10:16 10° SSE 17:15:45 60° ENE 17:21:17 10° N
Cosmos 44 4.0 17:13:32 10° NNW 17:17:54 31° NE 17:20:56 16° E
Cosmos 1777 Rocket 4.1 17:14:29 10° NNW 17:19:48 83° WSW 17:25:04 10° SSE
ATLAS CENTAUR R/B 1.6 17:15:52 10° SW 17:19:54 69° NW 17:23:56 12° NNE
Cosmos 2034 Rocket 4.1 17:14:39 10° SSE 17:20:37 53° E 17:26:35 10° NNE
Cosmos 1939 Rocket 3.4 17:18:36 10° S 17:22:42 64° W 17:26:49 10° NNW
Lacrosse 5 2.0 17:18:01 10° NW 17:23:08 78° SW 17:28:14 10° SE
NOSS 3-1 (A) 4.4 17:17:40 10° NNW 17:24:27 41° NE 17:31:39 12° ESE
SKYMED 2 4.2 17:22:52 12° NNE 17:26:35 35° E 17:30:33 10° SSE
Cosmos 1898 Rocket 4.4 17:24:11 10° N 17:28:40 27° NE 17:31:16 19° E
Okean 3 Rocket 4.2 17:25:08 10° NNW 17:29:37 60° W 17:34:01 10° S
NOSS 3-1 (C) 4.1 17:22:24 10° NW 17:29:38 60° NE 17:38:09 10° SE
NOSS 2-1 (C) 3.3 17:26:44 10° SW 17:29:58 56° NW 17:32:11 18° NNE
Cosmos 1656 3.9 17:26:01 10° NNW 17:31:19 46° ENE 17:36:40 10° SE
MOS 1-B Rocket 4.0 17:26:02 10° NNE 17:31:37 54° E 17:37:42 10° S
CZ-2D R/B 3.1 17:30:24 10° SSE 17:34:15 82° ENE 17:38:07 10° N
GEOS 3 Rocket 3.6 17:29:25 10° SE 17:34:38 69° NE 17:39:49 10° NW
PSLV R/B 3.7 17:32:30 10° S 17:36:10 78° WSW 17:39:53 10° NNW
Meteor 1-20 Rocket 4.4 17:30:41 10° N 17:36:18 49° ENE 17:41:56 10° SSE
MOS 1-B 4.3 17:30:33 10° SSE 17:36:19 81° ENE 17:42:08 10° NNW
Cosmos 1461 4.0 17:32:26 10° WSW 17:36:27 40° NW 17:39:49 13° NNE
USA 308 3.0 17:33:12 10° WSW 17:37:27 72° NNW 17:39:45 26° NE
NOSS 2-1 (D) 3.7 17:36:05 10° WSW 17:39:15 45° NW 17:41:11 20° NNE
SL-08 RB Rocket 4.3 17:35:09 10° SE 17:39:19 33° ENE 17:43:28 10° N
Cosmos 1500 Rocket 3.6 17:37:44 10° N 17:42:09 57° ENE 17:46:31 10° SSE
SJ 16-02 1.9 17:40:14 10° NNW 17:44:34 60° WSW 17:48:52 10° S
Cosmos 1634 Rocket 4.3 17:43:13 10° SSE 17:49:05 43° E 17:55:01 10° NNE
Cosmos 1842 Rocket 3.8 17:47:28 10° SSW 17:51:53 72° W 17:56:22 10° N
Cosmos 1805 Rocket 3.8 17:48:18 10° N 17:52:28 42° ENE 17:56:34 10° SSE
CZ-4B R/B 3.1 17:48:03 10° SSE 17:53:34 84° ENE 17:59:00 10° NNW
CZ-4C R/B 3.9 17:48:38 10° NNW 17:54:12 26° NNE 17:56:09 24° NE
CZ-4 R/B 3.5 18:00:41 15° N 18:00:41 15° N 18:01:28 10° N
TIMED 4.4 17:53:29 10° SSW 17:57:49 76° ESE 17:59:55 30° NNE
ATLAS 5 CENTAUR R/B 3.6 17:50:17 10° NW 17:57:52 27° N 17:58:53 25° NNE
Cosmos 1833 Rocket 3.2 17:52:52 10° S 17:57:56 36° ESE 17:58:47 34° E
YAOGAN 3 4.4 17:55:23 10° SSE 17:59:43 75° ENE 18:04:05 10° N
Cosmos 540 Rocket 4.5 17:59:18 10° SSE 18:02:28 27° SE 18:02:28 27° SE
Cosmos 1606 4.5 18:02:55 10° SW 18:06:17 31° WNW 18:09:40 10° N
Meteor 1-25 Rocket 4.0 18:02:35 10° N 18:08:10 80° E 18:13:45 10° SSE
USA 305 3.6 18:04:28 10° W 18:08:31 45° NNW 18:09:32 37° NNE
Cosmos 2026 Rocket 3.8 18:02:47 10° N 18:08:59 67° E 18:15:03 10° SSE
Cosmos 2195 Rocket 4.3 18:04:08 10° N 18:10:18 80° E 18:16:28 10° S
USA 276 3.4 18:08:15 10° WNW 18:10:26 32° NNW 18:10:26 32° NNW
Sich 1 4.3 18:07:20 10° N 18:09:17 25° NNE 18:09:17 25° NNE
Okean O Rocket 1.7 18:07:58 10° S 18:12:24 80° WSW 18:16:53 10° NNW
ARGOS 3.1 18:08:05 10° SSE 18:13:32 86° W 18:18:59 10° NNW
COSMO-SKYMED 1 2.7 18:11:30 17° N 18:14:46 74° WNW 18:19:05 10° SSW
Spot 2 4.4 18:11:28 14° SSE 18:15:47 60° ENE 18:20:53 10° N
ATLAS CENTAUR R/B 2.6 18:08:16 10° SW 18:18:08 70° SE 18:19:17 52° ENE
ERBS 3.1 18:17:14 10° WSW 18:19:49 46° WNW 18:19:49 46° WNW
Cosmos 1782 4.4 18:17:10 10° S 18:18:52 24° SSE 18:18:52 24° SSE
Cosmos 1937 Rocket 3.7 18:16:20 10° NNW 18:21:06 50° NE 18:21:06 50° NE
Meteor 2-16 Rocket 4.5 18:19:01 10° N 18:24:58 51° ENE 18:25:15 51° E
Cosmos 1763 Rocket 3.3 18:22:40 10° SSW 18:27:43 85° ESE 18:28:44 58° NNE
ISS -1.7 18:25:53 10° WNW 18:27:49 24° NW 18:27:49 24° NW
Cosmos 1340 Rocket 4.3 18:28:52 10° NNW 18:32:37 37° W 18:36:21 10° SSW
Cosmos 1933 3.7 18:29:05 10° SSW 18:33:07 64° W 18:33:24 61° NW
YAOGAN 1 4.0 18:35:36 27° N 18:35:36 27° N 18:37:35 10° NNW
CZ-2C R/B 3.1 18:29:41 10° N 18:34:50 56° WNW 18:39:53 10° SSW
USA 267 4.2 18:35:05 29° NNE 18:36:58 34° N 18:42:42 10° WNW
Meteor 2-21 4.4 18:31:49 10° N 18:37:57 84° W 18:44:01 10° S
Feng Yun 1-1 Rocket 4.4 18:32:40 10° SSE 18:38:36 80° WSW 18:44:33 10° NNW
Cosmos 2369 4.2 18:33:42 10° NNW 18:38:07 45° NNE 18:38:07 45° NNE
Landsat 5 4.2 18:38:53 40° NNW 18:39:59 52° WNW 18:44:01 10° SSW
USA 306 4.1 18:36:30 10° W 18:40:01 34° NNW 18:40:01 34° NNW
Lacrosse 5 rocket 3.7 18:38:20 10° NW 18:39:29 14° NNW 18:39:29 14° NNW
Cosmos 990 Rocket 4.4 18:36:47 10° NNW 18:41:56 61° WSW 18:46:44 11° S
H-2A R/B 4.3 18:48:21 10° SSW 18:52:37 24° W 18:56:48 10° NW
USA 229 DEB 3.8 18:45:15 10° NW 18:52:37 89° NE 18:54:57 50° SE
USA 229 3.8 18:45:21 10° NW 18:52:43 89° NE 18:54:59 51° SE
Cosmos 1697 Rocket 2.6 18:50:38 10° NNW 18:56:10 80° W 18:56:10 80° W
SL-16 R/B 4.4 18:52:33 10° N 18:53:08 12° N 18:53:08 12° N
Cosmos 1980 Rocket 3.3 18:51:18 10° NNW 18:54:31 33° N 18:54:31 33° N
COSMOS 2455 4.1 18:51:41 10° S 18:54:37 29° S 18:54:37 29° S
COSMOS 2406 3.4 18:52:37 10° SSW 18:57:18 61° SSW 18:57:18 61° SSW
Cosmos 44 4.2 18:54:45 10° NW 18:59:14 41° WSW 18:59:26 41° SW
ATLAS CENTAUR R/B 3.9 18:57:10 10° WNW 18:59:41 15° NNW 19:00:04 15° NNW
Cosmos 2082 Rocket 3.9 18:56:30 10° S 18:58:13 20° S 18:58:13 20° S
Cosmos 2142 Rocket 4.4 18:57:24 10° S 19:03:32 81° W 19:04:23 67° NNW
Cosmos 1898 Rocket 4.4 19:05:56 10° NNW 19:10:58 46° WSW 19:11:39 43° SW
NOSS 3-1 (A) 4.3 19:08:23 10° NW 19:15:56 68° WSW 19:19:12 41° S
Cosmos 2279 Rocket 4.5 19:22:00 10° SSW 19:28:06 57° WNW 19:28:11 57° WNW
Cosmos 1833 Rocket 4.1 19:36:34 10° WSW 19:40:32 34° W 19:40:32 34° W
CZ-4C R/B 3.6 19:36:47 10° NW 19:41:21 44° NNW 19:41:21 44° NNW
